Time,TemperatureF,DewpointF,PressureIn,WindDirection,WindDirectionDegrees,WindSpeedMPH,WindSpeedGustMPH,Humidity,HourlyPrecipIn,Conditions,Clouds,dailyrainin,SoftwareType,DateUTC
2013-04-09 00:02:00,68.0,54.0,29.82,SE,140,8.0,-999.0,59,-99.99,,,-99.99,,2013-04-09 05:02:00,
2013-04-09 00:12:00,68.0,54.0,29.82,SE,140,8.0,-999.0,59,-99.99,,,-99.99,,2013-04-09 05:12:00,
2013-04-09 00:22:00,68.0,54.0,29.83,SE,140,6.0,-999.0,59,-99.99,,,-99.99,,2013-04-09 05:22:00,
2013-04-09 00:32:00,68.0,54.0,29.83,SE,140,7.0,-999.0,59,-99.99,,,-99.99,,2013-04-09 05:32:00,
2013-04-09 00:42:00,68.0,54.0,29.83,SSE,150,7.0,-999.0,59,-99.99,,,-99.99,,2013-04-09 05:42:00,
2013-04-09 00:52:00,68.0,54.0,29.82,SSE,150,8.0,-999.0,59,-99.99,,,-99.99,,2013-04-09 05:52:00,
2013-04-09 01:02:00,68.0,54.0,29.83,SSE,160,8.0,-999.0,59,-99.99,,,-99.99,,2013-04-09 06:02:00,
2013-04-09 01:12:00,68.0,54.0,29.83,SSE,160,8.0,-999.0,59,-99.99,,,-99.99,,2013-04-09 06:12:00,
2013-04-09 01:22:00,68.0,54.0,29.82,SSE,160,6.0,-999.0,59,-99.99,,,-99.99,,2013-04-09 06:22:00,
2013-04-09 01:32:00,68.0,54.0,29.82,SSE,160,7.0,-999.0,59,-99.99,,,-99.99,,2013-04-09 06:32:00,
2013-04-09 01:42:00,68.0,54.0,29.82,South,170,8.0,-999.0,59,-99.99,,,-99.99,,2013-04-09 06:42:00,
2013-04-09 01:52:00,68.0,55.0,29.82,South,170,8.0,-999.0,64,-99.99,,,-99.99,,2013-04-09 06:52:00,
2013-04-09 02:02:00,68.0,55.0,29.81,South,170,9.0,-999.0,64,-99.99,,,-99.99,,2013-04-09 07:02:00,
2013-04-09 02:12:00,68.0,55.0,29.81,South,170,9.0,-999.0,64,-99.99,,,-99.99,,2013-04-09 07:12:00,
2013-04-09 02:22:00,68.0,55.0,29.80,South,170,9.0,-999.0,64,-99.99,,,-99.99,,2013-04-09 07:22:00,
2013-04-09 02:32:00,68.0,55.0,29.80,South,170,12.0,16.0,64,-99.99,,,-99.99,,2013-04-09 07:32:00,
2013-04-09 02:42:00,68.0,55.0,29.79,South,170,9.0,-999.0,64,-99.99,,,-99.99,,2013-04-09 07:42:00,
2013-04-09 02:52:00,68.0,55.0,29.79,South,180,12.0,17.0,64,-99.99,,,-99.99,,2013-04-09 07:52:00,
2013-04-09 03:03:00,68.0,55.0,29.79,South,170,10.0,-999.0,64,-99.99,,,-99.99,,2013-04-09 08:03:00,
2013-04-09 03:12:00,68.0,55.0,29.79,South,170,10.0,-999.0,64,-99.99,,,-99.99,,2013-04-09 08:12:00,
2013-04-09 03:22:00,68.0,55.0,29.78,South,170,9.0,-999.0,64,-99.99,,,-99.99,,2013-04-09 08:22:00,
2013-04-09 03:32:00,68.0,55.0,29.78,South,170,10.0,16.0,64,-99.99,,,-99.99,,2013-04-09 08:32:00,
2013-04-09 03:42:00,68.0,55.0,29.78,South,170,9.0,-999.0,64,-99.99,,,-99.99,,2013-04-09 08:42:00,
2013-04-09 03:52:00,68.0,55.0,29.78,SSE,160,7.0,-999.0,64,-99.99,,,-99.99,,2013-04-09 08:52:00,
2013-04-09 04:02:00,68.0,55.0,29.78,SSE,150,8.0,-999.0,64,-99.99,,,-99.99,,2013-04-09 09:02:00,
2013-04-09 04:12:00,68.0,55.0,29.78,SSE,150,8.0,-999.0,64,-99.99,,,-99.99,,2013-04-09 09:12:00,
2013-04-09 04:22:00,68.0,55.0,29.78,SSE,150,10.0,-999.0,64,-99.99,,,-99.99,,2013-04-09 09:22:00,
2013-04-09 04:33:00,68.0,55.0,29.78,SSE,150,8.0,-999.0,64,-99.99,,,-99.99,,2013-04-09 09:33:00,
2013-04-09 04:43:00,68.0,55.0,29.78,SSE,150,9.0,-999.0,64,-99.99,,,-99.99,,2013-04-09 09:43:00,
2013-04-09 04:53:00,66.0,55.0,29.78,SSE,150,8.0,-999.0,68,-99.99,,,-99.99,,2013-04-09 09:53:00,
2013-04-09 05:03:00,68.0,55.0,29.79,SSE,150,8.0,-999.0,64,-99.99,,,-99.99,,2013-04-09 10:03:00,
2013-04-09 05:12:00,68.0,55.0,29.79,SSE,150,8.0,-999.0,64,-99.99,,,-99.99,,2013-04-09 10:12:00,
2013-04-09 05:23:00,66.0,55.0,29.78,SE,140,9.0,-999.0,68,-99.99,,,-99.99,,2013-04-09 10:23:00,
2013-04-09 05:32:00,66.0,55.0,29.78,SSE,150,7.0,-999.0,68,-99.99,,,-99.99,,2013-04-09 10:32:00,
2013-04-09 05:42:00,66.0,55.0,29.79,SSE,150,7.0,-999.0,68,-99.99,,,-99.99,,2013-04-09 10:42:00,
2013-04-09 05:53:00,66.0,55.0,29.79,SE,140,7.0,-999.0,68,-99.99,,,-99.99,,2013-04-09 10:53:00,
2013-04-09 06:02:00,66.0,55.0,29.79,SE,140,8.0,-999.0,68,-99.99,,,-99.99,,2013-04-09 11:02:00,
2013-04-09 06:12:00,66.0,55.0,29.79,SE,140,8.0,-999.0,68,-99.99,,,-99.99,,2013-04-09 11:12:00,
2013-04-09 06:22:00,66.0,55.0,29.79,SE,140,8.0,-999.0,68,-99.99,,,-99.99,,2013-04-09 11:22:00,
2013-04-09 06:32:00,66.0,55.0,29.79,SE,140,7.0,-999.0,68,-99.99,,,-99.99,,2013-04-09 11:32:00,
2013-04-09 06:42:00,66.0,55.0,29.79,SE,140,7.0,-999.0,68,-99.99,,,-99.99,,2013-04-09 11:42:00,
2013-04-09 06:52:00,66.0,55.0,29.80,SE,140,9.0,-999.0,68,-99.99,,,-99.99,,2013-04-09 11:52:00,
2013-04-09 07:02:00,66.0,55.0,29.80,SSE,150,7.0,-999.0,68,-99.99,,,-99.99,,2013-04-09 12:02:00,
2013-04-09 07:12:00,66.0,55.0,29.80,SSE,150,7.0,-999.0,68,-99.99,,,-99.99,,2013-04-09 12:12:00,
2013-04-09 07:22:00,66.0,55.0,29.80,SSE,150,8.0,16.0,68,-99.99,,,-99.99,,2013-04-09 12:22:00,
2013-04-09 07:32:00,66.0,55.0,29.80,SSE,160,10.0,17.0,68,-99.99,,,-99.99,,2013-04-09 12:32:00,
2013-04-09 07:42:00,66.0,55.0,29.80,SSE,150,9.0,-999.0,68,-99.99,,,-99.99,,2013-04-09 12:42:00,
2013-04-09 07:53:00,66.0,55.0,29.80,SSE,160,8.0,-999.0,68,-99.99,,,-99.99,,2013-04-09 12:53:00,
2013-04-09 08:02:00,66.0,55.0,29.81,SSE,160,10.0,-999.0,68,-99.99,,,-99.99,,2013-04-09 13:02:00,
2013-04-09 08:12:00,66.0,55.0,29.81,SSE,160,10.0,-999.0,68,-99.99,,,-99.99,,2013-04-09 13:12:00,
2013-04-09 08:22:00,66.0,55.0,29.80,SSE,160,10.0,-999.0,68,-99.99,,,-99.99,,2013-04-09 13:22:00,
2013-04-09 08:32:00,68.0,55.0,29.80,SSE,160,13.0,-999.0,64,-99.99,,,-99.99,,2013-04-09 13:32:00,
2013-04-09 08:42:00,68.0,55.0,29.80,SSE,160,12.0,-999.0,64,-99.99,,,-99.99,,2013-04-09 13:42:00,
2013-04-09 08:53:00,68.0,55.0,29.80,South,170,13.0,16.0,64,-99.99,,,-99.99,,2013-04-09 13:53:00,
2013-04-09 09:03:00,68.0,55.0,29.80,SSE,160,12.0,18.0,64,-99.99,,,-99.99,,2013-04-09 14:03:00,
2013-04-09 09:12:00,68.0,55.0,29.80,SSE,160,12.0,18.0,64,-99.99,,,-99.99,,2013-04-09 14:12:00,
2013-04-09 09:22:00,70.0,55.0,29.80,SSE,160,12.0,22.0,60,-99.99,,,-99.99,,2013-04-09 14:22:00,
2013-04-09 09:32:00,72.0,55.0,29.80,South,180,16.0,-999.0,56,-99.99,,,-99.99,,2013-04-09 14:32:00,
2013-04-09 09:42:00,72.0,55.0,29.80,South,180,15.0,22.0,56,-99.99,,,-99.99,,2013-04-09 14:42:00,
2013-04-09 09:52:00,70.0,55.0,29.80,South,180,14.0,17.0,60,-99.99,,,-99.99,,2013-04-09 14:52:00,
2013-04-09 10:02:00,72.0,55.0,29.79,South,170,16.0,22.0,56,-99.99,,,-99.99,,2013-04-09 15:02:00,
2013-04-09 10:12:00,72.0,55.0,29.79,South,170,16.0,22.0,56,-99.99,,,-99.99,,2013-04-09 15:12:00,
2013-04-09 10:22:00,73.0,55.0,29.79,South,180,20.0,28.0,53,-99.99,,,-99.99,,2013-04-09 15:22:00,
2013-04-09 10:33:00,73.0,55.0,29.80,South,170,20.0,28.0,53,-99.99,,,-99.99,,2013-04-09 15:33:00,
2013-04-09 10:43:00,73.0,55.0,29.80,South,180,21.0,29.0,53,-99.99,,,-99.99,,2013-04-09 15:43:00,
2013-04-09 10:53:00,73.0,55.0,29.80,South,190,16.0,25.0,53,-99.99,,,-99.99,,2013-04-09 15:53:00,
2013-04-09 11:03:00,73.0,55.0,29.81,South,180,20.0,27.0,53,-99.99,,,-99.99,,2013-04-09 16:03:00,
2013-04-09 11:13:00,73.0,55.0,29.81,South,180,20.0,27.0,53,-99.99,,,-99.99,,2013-04-09 16:13:00,
2013-04-09 11:23:00,73.0,55.0,29.82,SSW,200,15.0,-999.0,53,-99.99,,,-99.99,,2013-04-09 16:23:00,
2013-04-09 11:33:00,72.0,55.0,29.83,SSW,210,13.0,23.0,56,-99.99,,,-99.99,,2013-04-09 16:33:00,
2013-04-09 11:42:00,72.0,55.0,29.84,SSW,210,18.0,-999.0,56,-99.99,,,-99.99,,2013-04-09 16:42:00,
2013-04-09 11:54:00,72.0,54.0,29.84,SSW,210,16.0,24.0,53,-99.99,,,-99.99,,2013-04-09 16:54:00,
2013-04-09 12:02:00,72.0,55.0,29.84,SSW,200,17.0,25.0,56,-99.99,,,-99.99,,2013-04-09 17:02:00,
2013-04-09 12:12:00,72.0,55.0,29.84,SSW,200,17.0,25.0,56,-99.99,,,-99.99,,2013-04-09 17:12:00,
2013-04-09 12:23:00,72.0,55.0,29.84,SSW,200,16.0,21.0,56,-99.99,,,-99.99,,2013-04-09 17:23:00,
2013-04-09 12:32:00,72.0,55.0,29.84,South,190,20.0,23.0,56,-99.99,,,-99.99,,2013-04-09 17:32:00,
2013-04-09 12:42:00,72.0,55.0,29.84,SSW,200,16.0,-999.0,56,-99.99,,,-99.99,,2013-04-09 17:42:00,
2013-04-09 12:54:00,72.0,55.0,29.84,SSW,200,15.0,21.0,56,-99.99,,,-99.99,,2013-04-09 17:54:00,
2013-04-09 13:02:00,72.0,55.0,29.84,South,190,17.0,22.0,56,-99.99,,,-99.99,,2013-04-09 18:02:00,
2013-04-09 13:12:00,72.0,55.0,29.84,South,190,17.0,22.0,56,-99.99,,,-99.99,,2013-04-09 18:12:00,
2013-04-09 13:22:00,72.0,55.0,29.84,SSW,200,17.0,25.0,56,-99.99,,,-99.99,,2013-04-09 18:22:00,
2013-04-09 13:32:00,72.0,55.0,29.84,SSW,200,17.0,25.0,56,-99.99,,,-99.99,,2013-04-09 18:32:00,
2013-04-09 13:43:00,73.0,55.0,29.83,SSW,200,17.0,24.0,53,-99.99,,,-99.99,,2013-04-09 18:43:00,
2013-04-09 13:53:00,73.0,55.0,29.83,SSW,200,17.0,24.0,53,-99.99,,,-99.99,,2013-04-09 18:53:00,
2013-04-09 14:02:00,73.0,55.0,29.83,SSW,200,17.0,24.0,53,-99.99,,,-99.99,,2013-04-09 19:02:00,
2013-04-09 14:12:00,73.0,55.0,29.83,SSW,200,17.0,24.0,53,-99.99,,,-99.99,,2013-04-09 19:12:00,
2013-04-09 14:22:00,73.0,55.0,29.82,SSW,200,18.0,23.0,53,-99.99,,,-99.99,,2013-04-09 19:22:00,
2013-04-09 14:32:00,73.0,57.0,29.81,SSW,200,20.0,29.0,56,-99.99,,,-99.99,,2013-04-09 19:32:00,
2013-04-09 14:41:00,73.0,57.0,29.81,SSW,200,20.0,29.0,56,-99.99,,,-99.99,,2013-04-09 19:41:00,
2013-04-09 14:52:00,75.0,57.0,29.80,SSW,200,17.0,27.0,53,-99.99,,,-99.99,,2013-04-09 19:52:00,
2013-04-09 15:02:00,75.0,57.0,29.80,South,190,22.0,31.0,53,-99.99,,,-99.99,,2013-04-09 20:02:00,
2013-04-09 15:12:00,75.0,57.0,29.80,South,190,22.0,31.0,53,-99.99,,,-99.99,,2013-04-09 20:12:00,
2013-04-09 15:22:00,77.0,57.0,29.80,SSW,200,20.0,25.0,50,-99.99,,,-99.99,,2013-04-09 20:22:00,
2013-04-09 15:33:00,77.0,57.0,29.80,SSW,200,17.0,29.0,50,-99.99,,,-99.99,,2013-04-09 20:33:00,
2013-04-09 15:42:00,77.0,57.0,29.79,SSW,200,16.0,24.0,50,-99.99,,,-99.99,,2013-04-09 20:42:00,
2013-04-09 15:53:00,77.0,59.0,29.79,SSW,210,20.0,24.0,53,-99.99,,,-99.99,,2013-04-09 20:53:00,
2013-04-09 16:02:00,79.0,59.0,29.79,SSW,200,16.0,22.0,50,-99.99,,,-99.99,,2013-04-09 21:02:00,
2013-04-09 16:13:00,79.0,59.0,29.79,SSW,200,16.0,22.0,50,-99.99,,,-99.99,,2013-04-09 21:13:00,
2013-04-09 16:22:00,79.0,59.0,29.79,SSW,200,16.0,22.0,50,-99.99,,,-99.99,,2013-04-09 21:22:00,
2013-04-09 16:33:00,77.0,57.0,29.79,South,190,16.0,24.0,50,-99.99,,,-99.99,,2013-04-09 21:33:00,
2013-04-09 16:42:00,77.0,57.0,29.79,South,190,16.0,24.0,50,-99.99,,,-99.99,,2013-04-09 21:42:00,
2013-04-09 16:53:00,77.0,57.0,29.79,SSW,200,18.0,24.0,50,-99.99,,,-99.99,,2013-04-09 21:53:00,
2013-04-09 17:03:00,77.0,57.0,29.79,SSW,200,17.0,23.0,50,-99.99,,,-99.99,,2013-04-09 22:03:00,
2013-04-09 17:12:00,77.0,57.0,29.79,SSW,200,17.0,23.0,50,-99.99,,,-99.99,,2013-04-09 22:12:00,
2013-04-09 17:23:00,79.0,57.0,29.79,South,180,15.0,20.0,47,-99.99,,,-99.99,,2013-04-09 22:23:00,
2013-04-09 17:33:00,77.0,57.0,29.79,SSW,200,15.0,23.0,50,-99.99,,,-99.99,,2013-04-09 22:33:00,
2013-04-09 17:42:00,77.0,57.0,29.79,South,190,15.0,21.0,50,-99.99,,,-99.99,,2013-04-09 22:42:00,
2013-04-09 17:53:00,77.0,57.0,29.79,SSW,210,12.0,20.0,50,-99.99,,,-99.99,,2013-04-09 22:53:00,
2013-04-09 18:03:00,77.0,57.0,29.79,SSW,210,12.0,16.0,50,-99.99,,,-99.99,,2013-04-09 23:03:00,
2013-04-09 18:12:00,77.0,57.0,29.79,SSW,210,12.0,16.0,50,-99.99,,,-99.99,,2013-04-09 23:12:00,
2013-04-09 18:22:00,77.0,59.0,29.79,SSW,200,9.0,-999.0,53,-99.99,,,-99.99,,2013-04-09 23:22:00,
2013-04-09 18:32:00,77.0,57.0,29.78,South,180,14.0,-999.0,50,-99.99,,,-99.99,,2013-04-09 23:32:00,
2013-04-09 18:42:00,77.0,57.0,29.78,South,190,8.0,-999.0,50,-99.99,,,-99.99,,2013-04-09 23:42:00,
2013-04-09 18:53:00,75.0,57.0,29.78,South,180,9.0,-999.0,53,-99.99,,,-99.99,,2013-04-09 23:53:00,
2013-04-09 19:03:00,75.0,57.0,29.78,South,170,8.0,-999.0,53,-99.99,,,-99.99,,2013-04-10 00:03:00,
2013-04-09 19:12:00,75.0,57.0,29.78,South,170,8.0,-999.0,53,-99.99,,,-99.99,,2013-04-10 00:12:00,
2013-04-09 19:22:00,75.0,57.0,29.78,South,170,8.0,-999.0,53,-99.99,,,-99.99,,2013-04-10 00:22:00,
2013-04-09 19:32:00,75.0,57.0,29.79,SSE,160,7.0,-999.0,53,-99.99,,,-99.99,,2013-04-10 00:32:00,
2013-04-09 19:42:00,73.0,57.0,29.79,SSE,160,6.0,-999.0,56,-99.99,,,-99.99,,2013-04-10 00:42:00,
2013-04-09 19:53:00,73.0,57.0,29.79,SSE,150,5.0,-999.0,56,-99.99,,,-99.99,,2013-04-10 00:53:00,
2013-04-09 20:02:00,73.0,57.0,29.79,SSE,150,6.0,-999.0,56,-99.99,,,-99.99,,2013-04-10 01:02:00,
2013-04-09 20:12:00,73.0,57.0,29.79,SSE,150,6.0,-999.0,56,-99.99,,,-99.99,,2013-04-10 01:12:00,
2013-04-09 20:23:00,72.0,57.0,29.80,SSE,160,6.0,-999.0,60,-99.99,,,-99.99,,2013-04-10 01:23:00,
2013-04-09 20:32:00,72.0,57.0,29.80,SSE,160,5.0,-999.0,60,-99.99,,,-99.99,,2013-04-10 01:32:00,
2013-04-09 20:42:00,70.0,57.0,29.81,SSE,160,3.0,-999.0,64,-99.99,,,-99.99,,2013-04-10 01:42:00,
2013-04-09 20:53:00,70.0,57.0,29.81,South,170,5.0,-999.0,64,-99.99,,,-99.99,,2013-04-10 01:53:00,
2013-04-09 21:02:00,70.0,57.0,29.81,SSE,160,5.0,-999.0,64,-99.99,,,-99.99,,2013-04-10 02:02:00,
2013-04-09 21:12:00,70.0,57.0,29.81,SSE,160,5.0,-999.0,64,-99.99,,,-99.99,,2013-04-10 02:12:00,
2013-04-09 21:22:00,70.0,57.0,29.81,South,170,5.0,-999.0,64,-99.99,,,-99.99,,2013-04-10 02:22:00,
2013-04-09 21:32:00,70.0,57.0,29.82,SSE,160,5.0,-999.0,64,-99.99,,,-99.99,,2013-04-10 02:32:00,
2013-04-09 21:42:00,70.0,57.0,29.82,South,170,5.0,-999.0,64,-99.99,,,-99.99,,2013-04-10 02:42:00,
2013-04-09 21:52:00,70.0,57.0,29.82,SSE,160,3.0,-999.0,64,-99.99,,,-99.99,,2013-04-10 02:52:00,
2013-04-09 22:02:00,70.0,57.0,29.82,SSE,150,6.0,-999.0,64,-99.99,,,-99.99,,2013-04-10 03:02:00,
2013-04-09 22:12:00,70.0,57.0,29.82,SSE,150,6.0,-999.0,64,-99.99,,,-99.99,,2013-04-10 03:12:00,
2013-04-09 22:22:00,70.0,57.0,29.82,SSE,150,5.0,-999.0,64,-99.99,,,-99.99,,2013-04-10 03:22:00,
2013-04-09 22:32:00,70.0,57.0,29.82,SE,140,5.0,-999.0,64,-99.99,,,-99.99,,2013-04-10 03:32:00,
2013-04-09 22:43:00,70.0,57.0,29.81,SE,140,6.0,-999.0,64,-99.99,,,-99.99,,2013-04-10 03:43:00,
2013-04-09 22:53:00,70.0,57.0,29.81,SE,140,6.0,-999.0,64,-99.99,,,-99.99,,2013-04-10 03:53:00,
2013-04-09 23:03:00,70.0,57.0,29.80,SE,140,5.0,-999.0,64,-99.99,,,-99.99,,2013-04-10 04:03:00,
2013-04-09 23:13:00,70.0,57.0,29.80,SE,140,5.0,-999.0,64,-99.99,,,-99.99,,2013-04-10 04:13:00,
2013-04-09 23:23:00,70.0,57.0,29.79,SE,130,6.0,-999.0,64,-99.99,,,-99.99,,2013-04-10 04:23:00,
2013-04-09 23:33:00,70.0,57.0,29.78,SE,140,5.0,-999.0,64,-99.99,,,-99.99,,2013-04-10 04:33:00,
2013-04-09 23:42:00,70.0,57.0,29.78,SE,140,6.0,-999.0,64,-99.99,,,-99.99,,2013-04-10 04:42:00,
2013-04-09 23:53:00,70.0,57.0,29.76,SE,130,7.0,-999.0,64,-99.99,,,-99.99,,2013-04-10 04:53:00,